Regional Weather Roundup
Issued by NWS

Home | Current Version | Previous Version | Text Only | Print | Product List | Glossary Off
Versions: 1 2 3 4 5 6 7 8 9 10 11 12 13 14 15 16 17 18 19 20 21 22 23 24 25 26 27 28 29 30 31 32 33 34 35 36 37 38 39 40 41 42 43 44 45 46 47 48 49 50

000
ASUS45 KABQ 241910
RWRNM
NEW MEXICO REGIONAL WEATHER ROUNDUP
NATIONAL WEATHER SERVICE ALBUQUERQUE NM
100 PM MDT MON JUL 24 2017

NOTE: "FAIR" MEANS FEW OR NO CLOUDS BELOW 12,000 FEET AGL WITH NO
       SIGNIFICANT WEATHER OR OBSTRUCTIONS TO VISION.

      THIS PRODUCT IS RELEASED AS TWO VERSIONS.  ONE VERSION NEAR
      THE TOP OF THE HOUR CONTAINING PRELIMINARY DATA FROM ALBUQUERQUE
      AND OTHER STATIONS.  A FINAL VERSION WITH ADDITIONAL DATA IS
      ISSUED ABOUT 10 MINUTES AFTER THE HOUR.

NMZ501-503-504-510>518-242000-
NORTHWEST PLATEAU/NORTHCENTRAL MOUNTAINS

CITY           SKY/WX    TMP DP  RH WIND       PRES   REMARKS
FARMINGTON     FAIR      83  52  34 SW5       30.15F
LOS ALAMOS     FAIR      79  45  29 E3        30.29F
SANTA FE       FAIR      80  51  36 VRB3      30.23F
TAOS           FAIR      81  46  30 NW6       30.28F
ANGEL FIRE     FAIR      74  50  42 W6        30.37F

$$
NMZ402-403-502-505>509-242000-
WESTCENTRAL MOUNTAINS/SOUTHWEST MOUNTAINS

CITY           SKY/WX    TMP DP  RH WIND       PRES   REMARKS
GALLUP         PTSUNNY   71  55  56 NE16      30.23F
GRANTS         FAIR      81  49  33 SE9G18    30.24F
SILVER CITY    DRIZZLE   72  62  72 CALM      30.20F

$$
NMZ407-409-411-412-242000-
SOUTHERN DESERTS

CITY           SKY/WX    TMP DP  RH WIND       PRES   REMARKS
DEMING         PTSUNNY   82  64  54 E7        30.11F
LAS CRUCES     FAIR      83  62  48 E7        30.13F
HOLLOMAN AFB   FAIR      87  63  43 S7        30.12F
ALAMOGORDO     FAIR      81  63  54 CALM      30.12F
T OR C         PTSUNNY   83  54  36 CALM      30.13F

$$
NMZ519>523-242000-
CENTRAL VALLEYS/CENTRAL HIGHLANDS

CITY           SKY/WX    TMP DP  RH WIND       PRES   REMARKS
ALBUQUERQUE    PTSUNNY   83  55  38 VRB3      30.17F
DOUBLE EAGLE   PTSUNNY   82  54  36 SW8       30.21F
MORIARTY ARPT  PTSUNNY   85  51  31 S6G16     30.23F
CLINES CORNERS PTSUNNY   82  48  30 S9        30.29F
BELEN          FAIR      82  52  35 SE5       30.17F
SOCORRO        FAIR      83  54  37 S6        30.14F

$$
NMZ524>526-539-540-242000-
SOUTHCENTRAL MOUNTAINS

CITY           SKY/WX    TMP DP  RH WIND       PRES   REMARKS
RUIDOSO        CLOUDY    73  54  49 S6        30.30S

$$
NMZ527>531-242000-
NORTHEAST HIGHLANDS/NORTHEAST PLAINS

CITY           SKY/WX    TMP DP  RH WIND       PRES   REMARKS
LAS VEGAS      FAIR      80  48  32 S13G18    30.27F
RATON          FAIR      82  46  28 SE7       30.20F
CLAYTON        PTSUNNY   86  57  37 SE10      30.13F

$$
NMZ532>537-242000-
EASTCENTRAL PLAINS

CITY           SKY/WX    TMP DP  RH WIND       PRES   REMARKS
SANTA ROSA     FAIR      87  53  30 SE10G16   30.12F
TUCUMCARI      FAIR      93  58  30 N7        30.05F
CANNON AFB     MOSUNNY   89  60  37 S10       30.11F
CLOVIS AIRPORT FAIR      88  60  38 S9        30.10F

$$
NMZ028-029-538-242000-
SOUTHEAST PLAINS

CITY           SKY/WX    TMP DP  RH WIND       PRES   REMARKS
ROSWELL        FAIR      91  57  31 S6G17     30.05F
ARTESIA        FAIR      91  59  33 S9G17     30.05F
CARLSBAD       FAIR      91  62  37 VRB6      30.02F
HOBBS          MOSUNNY   90  57  33 S7        30.08F


$$




USA.gov is the U.S. government's official web portal to all federal, state and local government web resources and services.